IRIDIUM 66 [-] (25289 NORAD) Tracking and Keplerian Element Data

This shows tracking and keplerian element data for the satellite.

Feedback or suggestion? Click here.




ElementValue
Catalog25289
NameIRIDIUM 66 [-]
Epoch Orbit6715
Epoch Day234.86701741
Epoch Year2018
RAAN41.5617
Inclination86.3823
Eccentricity0.0048209
Argument of Perigee105.4624
Mean Anonmoly255.9823
Mean Motion16.43460106
Decay Rate0.19993123
L11 25289U 98021E 18234.86701741 .19993123 -17245-5 27402-3 0 9998
L22 25289 86.3823 41.5617 0048209 105.4624 255.9823 16.43460106 67151

Live tracking and technical data element details for IRIDIUM 66 [-] (NORAD 25289). IRIDIUM 66 [-] can be tracked NOW for your location showing map with azimuth and elevation plus other details from your city location.

Track the satellite on the map from your city or location and see movement details for azimuth, elevation, latitude, longitude, range, height, and movement on the map or in text.







IsCatalogInMostPopularTable: catalog: 25289, numindb: 58
Update: records affected: 1



GetName: 25289 IRIDIUM 66 [-]

Hit Count: updated at: Sat, 15 Dec 2018 19:27:27 GMT